ARA228 DRRN-DGAA

Flight info

Callsign ARA228
Flight time 1h 16m
Altitude 36000
Route GAPAG1W GAPAG UG855 TAMIL UA603 LITEX LITEX1B
Aircraft B737/M-SDE2E3FGHIRWXY/LB1

Departure

Time 2026-05-06 19:41
Airport Diori Hamani International Airport (DRRN)

Arrival

Time 2026-05-06 20:58
Airport Kotoka International Airport (DGAA)
Time Latitude Longitude Altitude Speed Heading
2026-05-06 19:31 13.47800 2.17731 726 ft 0 kts 144°
2026-05-06 19:39 13.47798 2.17733 725 ft 2 kts 123°
2026-05-06 19:39 13.47813 2.17741 725 ft 5 kts 346°
2026-05-06 19:40 13.47868 2.17696 725 ft 15 kts 305°
2026-05-06 19:40 13.47978 2.17645 724 ft 21 kts 356°
2026-05-06 19:40 13.48120 2.17636 724 ft 20 kts 356°
2026-05-06 19:40 13.48198 2.17706 723 ft 25 kts 86°
2026-05-06 19:41 13.48219 2.18116 725 ft 89 kts 87°
2026-05-06 19:41 13.48255 2.18950 724 ft 142 kts 87°
2026-05-06 19:41 13.48299 2.20092 844 ft 168 kts 89°
2026-05-06 19:41 13.48307 2.21263 1378 ft 167 kts 92°
2026-05-06 19:42 13.48204 2.22550 1408 ft 205 kts 94°
2026-05-06 19:42 13.47913 2.24096 2012 ft 214 kts 120°
2026-05-06 19:42 13.46983 2.25099 3414 ft 194 kts 156°
2026-05-06 19:42 13.45599 2.25295 3988 ft 218 kts 195°
2026-05-06 19:43 13.44121 2.24564 4287 ft 257 kts 213°
2026-05-06 19:43 13.42593 2.23455 5021 ft 274 kts 221°
2026-05-06 19:43 13.41360 2.21976 6040 ft 276 kts 242°
2026-05-06 19:43 13.40838 2.20073 6702 ft 281 kts 263°
2026-05-06 19:44 13.40636 2.18049 7292 ft 289 kts 264°
2026-05-06 19:44 13.40393 2.15977 7951 ft 295 kts 258°
2026-05-06 19:44 13.39566 2.14085 8649 ft 297 kts 230°
2026-05-06 19:44 13.38060 2.12638 9466 ft 299 kts 217°
2026-05-06 19:45 13.36390 2.11328 10131 ft 307 kts 215°
2026-05-06 19:45 13.34599 2.09983 10329 ft 332 kts 214°
2026-05-06 19:45 13.32719 2.08582 10502 ft 354 kts 214°
2026-05-06 19:45 13.31203 2.07451 10627 ft 370 kts 214°
2026-05-06 19:46 13.29082 2.05858 10983 ft 383 kts 215°
2026-05-06 19:46 13.26926 2.04226 11549 ft 385 kts 215°
2026-05-06 19:46 13.24765 2.02584 11758 ft 386 kts 215°
2026-05-06 19:46 13.22599 2.00931 11780 ft 389 kts 215°
2026-05-06 19:47 13.20428 1.99274 11777 ft 389 kts 215°
2026-05-06 19:47 13.18256 1.97613 11771 ft 388 kts 215°
2026-05-06 19:47 13.16089 1.95956 11778 ft 388 kts 215°
2026-05-06 19:47 13.13952 1.94323 11782 ft 388 kts 215°
2026-05-06 19:48 13.11759 1.92646 11784 ft 388 kts 215°
2026-05-06 19:48 13.09630 1.91019 11781 ft 388 kts 215°
2026-05-06 19:48 13.07464 1.89364 11788 ft 388 kts 215°
2026-05-06 19:48 13.05296 1.87709 11786 ft 388 kts 215°
2026-05-06 19:49 13.03127 1.86053 11785 ft 388 kts 215°
2026-05-06 19:49 13.00958 1.84397 11787 ft 388 kts 215°
2026-05-06 19:49 12.98795 1.82746 11783 ft 388 kts 215°
2026-05-06 19:49 12.96618 1.81085 11787 ft 388 kts 215°
2026-05-06 19:50 12.94478 1.79453 11785 ft 388 kts 215°
2026-05-06 19:50 12.92310 1.77800 11789 ft 388 kts 215°
2026-05-06 19:50 12.90150 1.76152 11791 ft 388 kts 215°
2026-05-06 19:50 12.87983 1.74500 11787 ft 388 kts 215°
2026-05-06 19:51 12.85816 1.72849 11789 ft 388 kts 215°
2026-05-06 19:51 12.84354 1.71735 11788 ft 388 kts 215°
2026-05-06 19:51 12.81487 1.69550 11786 ft 388 kts 215°
2026-05-06 19:51 12.80046 1.68453 11788 ft 388 kts 215°
2026-05-06 19:52 12.77885 1.66808 11791 ft 388 kts 215°
2026-05-06 19:52 12.75717 1.65156 11792 ft 388 kts 215°
2026-05-06 19:52 12.73546 1.63504 11787 ft 388 kts 215°
2026-05-06 19:52 12.71361 1.61842 12090 ft 392 kts 215°
2026-05-06 19:53 12.69171 1.60176 12834 ft 394 kts 215°
2026-05-06 19:53 12.66962 1.58496 13521 ft 397 kts 215°
2026-05-06 19:53 12.64733 1.56801 14100 ft 400 kts 215°
2026-05-06 19:53 12.62492 1.55097 14675 ft 404 kts 215°
2026-05-06 19:54 12.60228 1.53376 15278 ft 406 kts 215°
2026-05-06 19:54 12.57948 1.51643 15844 ft 409 kts 215°
2026-05-06 19:54 12.55660 1.49905 16399 ft 412 kts 215°
2026-05-06 19:54 12.53345 1.48145 16942 ft 415 kts 215°
2026-05-06 19:55 12.51023 1.46382 17463 ft 418 kts 215°
2026-05-06 19:55 12.48678 1.44601 17987 ft 421 kts 216°
2026-05-06 19:55 12.46316 1.42809 18418 ft 424 kts 216°
2026-05-06 19:55 12.43932 1.40998 18843 ft 426 kts 216°
2026-05-06 19:56 12.41550 1.39191 19269 ft 428 kts 216°
2026-05-06 19:56 12.39146 1.37367 19671 ft 431 kts 216°
2026-05-06 19:56 12.36729 1.35534 20077 ft 433 kts 215°
2026-05-06 19:56 12.34299 1.33691 20469 ft 436 kts 215°
2026-05-06 19:57 12.31862 1.31844 20844 ft 438 kts 215°
2026-05-06 19:57 12.29436 1.30006 21204 ft 441 kts 215°
2026-05-06 19:57 12.26964 1.28132 21564 ft 443 kts 215°
2026-05-06 19:57 12.24486 1.26256 21915 ft 445 kts 215°
2026-05-06 19:58 12.21986 1.24362 22242 ft 448 kts 215°
2026-05-06 19:58 12.19473 1.22459 22589 ft 450 kts 215°
2026-05-06 19:58 12.16952 1.20551 22905 ft 452 kts 215°
2026-05-06 19:58 12.14419 1.18634 23219 ft 454 kts 215°
2026-05-06 19:59 12.11872 1.16706 23487 ft 456 kts 215°
2026-05-06 19:59 12.09322 1.14778 23751 ft 458 kts 215°
2026-05-06 19:59 12.06755 1.12836 24019 ft 459 kts 215°
2026-05-06 19:59 12.04182 1.10890 24269 ft 460 kts 216°
2026-05-06 20:00 12.01602 1.08940 24511 ft 462 kts 216°
2026-05-06 20:00 11.99011 1.06982 24753 ft 463 kts 216°
2026-05-06 20:00 11.96408 1.05016 24977 ft 465 kts 216°
2026-05-06 20:00 11.93804 1.03048 25218 ft 466 kts 216°
2026-05-06 20:01 11.91227 1.01102 25439 ft 467 kts 216°
2026-05-06 20:01 11.88606 0.99124 25654 ft 469 kts 216°
2026-05-06 20:01 11.85976 0.97138 25861 ft 470 kts 216°
2026-05-06 20:01 11.83340 0.95150 26065 ft 472 kts 216°
2026-05-06 20:02 11.80697 0.93155 26273 ft 473 kts 216°
2026-05-06 20:02 11.78050 0.91159 26480 ft 474 kts 216°
2026-05-06 20:02 11.75398 0.89160 26673 ft 475 kts 216°
2026-05-06 20:02 11.72736 0.87153 26864 ft 476 kts 216°
2026-05-06 20:03 11.70068 0.85142 27052 ft 477 kts 216°
2026-05-06 20:03 11.67399 0.83131 27238 ft 478 kts 216°
2026-05-06 20:03 11.64725 0.81116 27412 ft 479 kts 216°
2026-05-06 20:03 11.62038 0.79093 27579 ft 480 kts 216°
2026-05-06 20:04 11.59352 0.77070 27745 ft 481 kts 216°
2026-05-06 20:04 11.56659 0.75043 27894 ft 482 kts 216°
2026-05-06 20:04 11.53957 0.73010 28047 ft 483 kts 216°
2026-05-06 20:04 11.51251 0.70974 28203 ft 484 kts 216°
2026-05-06 20:05 11.48542 0.68936 28345 ft 484 kts 216°
2026-05-06 20:05 11.45830 0.66897 28500 ft 485 kts 216°
2026-05-06 20:05 11.43108 0.64850 28646 ft 486 kts 216°
2026-05-06 20:05 11.40386 0.62804 28797 ft 486 kts 216°
2026-05-06 20:06 11.37700 0.60785 28987 ft 486 kts 216°
2026-05-06 20:06 11.34982 0.58743 29203 ft 485 kts 216°
2026-05-06 20:06 11.32271 0.56707 29424 ft 484 kts 216°
2026-05-06 20:06 11.29559 0.54670 29656 ft 483 kts 216°
2026-05-06 20:07 11.26855 0.52640 29883 ft 482 kts 216°
2026-05-06 20:07 11.24157 0.50615 30084 ft 482 kts 216°
2026-05-06 20:07 11.21455 0.48587 30270 ft 482 kts 216°
2026-05-06 20:07 11.18758 0.46564 30458 ft 482 kts 216°
2026-05-06 20:08 11.16062 0.44541 30656 ft 481 kts 216°
2026-05-06 20:08 11.13370 0.42523 30878 ft 481 kts 216°
2026-05-06 20:08 11.10674 0.40501 31113 ft 480 kts 216°
2026-05-06 20:08 11.07985 0.38485 31358 ft 479 kts 216°
2026-05-06 20:09 11.05299 0.36472 31586 ft 479 kts 216°
2026-05-06 20:09 11.02621 0.34465 31831 ft 478 kts 216°
2026-05-06 20:09 10.99945 0.32452 32112 ft 477 kts 217°
2026-05-06 20:09 10.97437 0.30303 32376 ft 477 kts 221°
2026-05-06 20:10 10.95038 0.27980 32674 ft 476 kts 224°
2026-05-06 20:10 10.92697 0.25607 32961 ft 475 kts 224°
2026-05-06 20:10 10.90363 0.23231 33252 ft 474 kts 224°
2026-05-06 20:10 10.88019 0.20879 33553 ft 473 kts 223°
2026-05-06 20:11 10.85660 0.18547 33866 ft 471 kts 223°
2026-05-06 20:11 10.83296 0.16237 34139 ft 470 kts 223°
2026-05-06 20:11 10.80938 0.13945 34407 ft 470 kts 223°
2026-05-06 20:11 10.78569 0.11647 34677 ft 469 kts 223°
2026-05-06 20:12 10.76213 0.09362 34960 ft 468 kts 223°
2026-05-06 20:12 10.73862 0.07080 35226 ft 467 kts 223°
2026-05-06 20:12 10.71513 0.04797 35481 ft 466 kts 223°
2026-05-06 20:12 10.69167 0.02519 35735 ft 466 kts 223°
2026-05-06 20:13 10.63979 -0.01386 35845 ft 467 kts 202°
2026-05-06 20:13 10.60925 -0.02365 35828 ft 467 kts 190°
2026-05-06 20:13 10.57699 -0.02628 35843 ft 466 kts 180°
2026-05-06 20:14 10.51217 -0.02504 35835 ft 466 kts 179°
2026-05-06 20:14 10.44738 -0.02343 35831 ft 466 kts 179°
2026-05-06 20:15 10.38252 -0.02242 35829 ft 466 kts 179°
2026-05-06 20:15 10.31771 -0.02175 35831 ft 466 kts 180°
2026-05-06 20:16 10.25283 -0.02115 35831 ft 466 kts 180°
2026-05-06 20:16 10.18797 -0.02053 35828 ft 466 kts 179°
2026-05-06 20:17 10.12346 -0.01990 35828 ft 466 kts 180°
2026-05-06 20:17 10.05852 -0.01926 35834 ft 466 kts 179°
2026-05-06 20:18 9.99365 -0.01862 35833 ft 466 kts 179°
2026-05-06 20:18 9.92879 -0.01798 35837 ft 466 kts 179°
2026-05-06 20:19 9.86390 -0.01734 35838 ft 466 kts 179°
2026-05-06 20:19 9.79899 -0.01670 35838 ft 466 kts 179°
2026-05-06 20:20 9.73405 -0.01606 35840 ft 467 kts 179°
2026-05-06 20:20 9.66912 -0.01542 35840 ft 467 kts 179°
2026-05-06 20:21 9.60403 -0.01479 35842 ft 467 kts 179°
2026-05-06 20:21 9.53944 -0.01415 35844 ft 467 kts 179°
2026-05-06 20:22 9.47439 -0.01361 35839 ft 468 kts 179°
2026-05-06 20:22 9.40929 -0.01321 35844 ft 468 kts 179°
2026-05-06 20:23 9.34418 -0.01280 35844 ft 468 kts 179°
2026-05-06 20:23 9.27906 -0.01236 35848 ft 468 kts 179°
2026-05-06 20:24 9.21398 -0.01192 35846 ft 468 kts 179°
2026-05-06 20:24 9.14877 -0.01138 35847 ft 468 kts 179°
2026-05-06 20:25 9.08368 -0.01079 35850 ft 468 kts 179°
2026-05-06 20:25 9.01906 -0.01022 35850 ft 467 kts 179°
2026-05-06 20:26 8.95400 -0.00966 35849 ft 467 kts 179°
2026-05-06 20:26 8.88894 -0.00910 35850 ft 467 kts 179°
2026-05-06 20:27 8.82387 -0.00854 35850 ft 467 kts 179°
2026-05-06 20:27 8.75889 -0.00798 35850 ft 467 kts 179°
2026-05-06 20:28 8.69384 -0.00742 35850 ft 467 kts 179°
2026-05-06 20:28 8.62880 -0.00722 35849 ft 467 kts 181°
2026-05-06 20:29 8.56383 -0.01006 35849 ft 467 kts 183°
2026-05-06 20:29 8.49887 -0.01384 35851 ft 468 kts 183°
2026-05-06 20:30 8.40134 -0.01907 35849 ft 468 kts 182°
2026-05-06 20:31 8.33629 -0.02231 35847 ft 468 kts 182°
2026-05-06 20:31 8.27127 -0.02551 35852 ft 468 kts 182°
2026-05-06 20:32 8.20654 -0.02870 35851 ft 468 kts 182°
2026-05-06 20:32 8.14142 -0.03191 35853 ft 469 kts 182°
2026-05-06 20:33 8.07621 -0.03513 35855 ft 469 kts 182°
2026-05-06 20:33 8.01095 -0.03836 35851 ft 469 kts 182°
2026-05-06 20:34 7.94573 -0.04158 35846 ft 469 kts 182°
2026-05-06 20:34 7.88043 -0.04480 35857 ft 469 kts 182°
2026-05-06 20:35 7.81512 -0.04803 35856 ft 470 kts 182°
2026-05-06 20:35 7.75025 -0.05123 35858 ft 470 kts 182°
2026-05-06 20:36 7.68499 -0.05444 35858 ft 470 kts 182°
2026-05-06 20:36 7.61961 -0.05766 35856 ft 470 kts 182°
2026-05-06 20:37 7.55428 -0.06089 35862 ft 470 kts 182°
2026-05-06 20:37 7.48895 -0.06411 35863 ft 470 kts 182°
2026-05-06 20:38 7.43461 -0.06678 35860 ft 470 kts 182°
2026-05-06 20:38 7.36923 -0.07000 35865 ft 470 kts 182°
2026-05-06 20:39 7.30393 -0.07322 35871 ft 470 kts 182°
2026-05-06 20:39 7.23863 -0.07643 35865 ft 470 kts 182°
2026-05-06 20:40 7.17326 -0.07965 35877 ft 470 kts 182°
2026-05-06 20:40 7.14036 -0.08126 35280 ft 478 kts 182°
2026-05-06 20:40 7.10721 -0.08289 34624 ft 476 kts 182°
2026-05-06 20:40 7.07396 -0.08452 33598 ft 481 kts 181°
2026-05-06 20:41 7.04035 -0.08618 32633 ft 483 kts 181°
2026-05-06 20:41 7.00674 -0.08783 31696 ft 484 kts 181°
2026-05-06 20:41 6.97301 -0.08949 30713 ft 487 kts 181°
2026-05-06 20:41 6.93951 -0.09114 29671 ft 490 kts 180°
2026-05-06 20:42 6.90530 -0.09281 28438 ft 493 kts 181°
2026-05-06 20:42 6.87108 -0.09449 27257 ft 493 kts 181°
2026-05-06 20:42 6.83668 -0.09618 26028 ft 495 kts 181°
2026-05-06 20:42 6.80244 -0.09787 25141 ft 489 kts 181°
2026-05-06 20:43 6.76852 -0.09955 24228 ft 485 kts 181°
2026-05-06 20:43 6.73509 -0.10119 23399 ft 479 kts 181°
2026-05-06 20:43 6.70202 -0.10282 22348 ft 474 kts 181°
2026-05-06 20:43 6.66937 -0.10442 21547 ft 464 kts 181°
2026-05-06 20:44 6.63719 -0.10593 20582 ft 460 kts 180°
2026-05-06 20:44 6.60549 -0.10512 19654 ft 454 kts 174°
2026-05-06 20:44 6.57428 -0.10212 18892 ft 445 kts 172°
2026-05-06 20:44 6.54352 -0.09841 17975 ft 443 kts 172°
2026-05-06 20:45 6.51323 -0.09468 16991 ft 438 kts 172°
2026-05-06 20:45 6.48325 -0.09118 16219 ft 429 kts 172°
2026-05-06 20:45 6.45356 -0.08794 15314 ft 426 kts 172°
2026-05-06 20:45 6.42432 -0.08491 14443 ft 422 kts 172°
2026-05-06 20:46 6.39539 -0.08201 13720 ft 414 kts 171°
2026-05-06 20:46 6.36670 -0.07916 12850 ft 411 kts 171°
2026-05-06 20:46 6.33844 -0.07637 11907 ft 408 kts 171°
2026-05-06 20:46 6.31049 -0.07361 11088 ft 402 kts 171°
2026-05-06 20:47 6.28316 -0.07091 10497 ft 395 kts 171°
2026-05-06 20:47 6.25645 -0.06828 10321 ft 375 kts 171°
2026-05-06 20:47 6.23119 -0.06581 10195 ft 355 kts 171°
2026-05-06 20:47 6.20715 -0.06344 10083 ft 338 kts 170°
2026-05-06 20:48 6.18426 -0.06116 9977 ft 323 kts 170°
2026-05-06 20:48 6.16244 -0.05898 9897 ft 308 kts 170°
2026-05-06 20:48 6.14158 -0.05692 9802 ft 294 kts 170°
2026-05-06 20:48 6.12138 -0.05490 9490 ft 292 kts 170°
2026-05-06 20:49 6.10119 -0.05287 9118 ft 291 kts 170°
2026-05-06 20:49 6.08114 -0.05086 8748 ft 289 kts 171°
2026-05-06 20:49 6.06114 -0.04888 8396 ft 288 kts 171°
2026-05-06 20:49 6.04148 -0.04694 8040 ft 287 kts 171°
2026-05-06 20:50 6.02142 -0.04495 7674 ft 286 kts 172°
2026-05-06 20:50 6.00187 -0.04303 7327 ft 285 kts 172°
2026-05-06 20:50 5.98212 -0.04109 6951 ft 286 kts 172°
2026-05-06 20:50 5.96237 -0.03914 6592 ft 284 kts 172°
2026-05-06 20:51 5.94416 -0.03733 6277 ft 281 kts 172°
2026-05-06 20:51 5.92499 -0.03674 5858 ft 270 kts 188°
2026-05-06 20:51 5.90750 -0.04239 5584 ft 259 kts 201°
2026-05-06 20:51 5.89099 -0.04934 5365 ft 258 kts 201°
2026-05-06 20:52 5.87420 -0.05637 5092 ft 263 kts 201°
2026-05-06 20:52 5.85732 -0.06338 4810 ft 261 kts 202°
2026-05-06 20:52 5.84086 -0.07020 4488 ft 249 kts 202°
2026-05-06 20:52 5.82527 -0.07664 4193 ft 235 kts 202°
2026-05-06 20:53 5.81054 -0.08271 3924 ft 222 kts 202°
2026-05-06 20:53 5.79679 -0.08836 3678 ft 211 kts 202°
2026-05-06 20:53 5.78375 -0.09372 3444 ft 202 kts 202°
2026-05-06 20:53 5.77097 -0.09898 3251 ft 194 kts 203°
2026-05-06 20:54 5.75911 -0.10386 3049 ft 183 kts 203°
2026-05-06 20:54 5.74760 -0.10860 2840 ft 176 kts 202°
2026-05-06 20:54 5.73662 -0.11312 2644 ft 173 kts 204°
2026-05-06 20:54 5.72570 -0.11762 2452 ft 165 kts 203°
2026-05-06 20:55 5.71528 -0.12190 2262 ft 158 kts 204°
2026-05-06 20:55 5.70551 -0.12591 2063 ft 144 kts 204°
2026-05-06 20:55 5.69616 -0.12976 1896 ft 148 kts 203°
2026-05-06 20:55 5.68651 -0.13375 1717 ft 151 kts 203°
2026-05-06 20:56 5.67703 -0.13760 1543 ft 140 kts 203°
2026-05-06 20:56 5.66830 -0.14106 1394 ft 128 kts 203°
2026-05-06 20:56 5.66012 -0.14448 1178 ft 127 kts 205°
2026-05-06 20:56 5.65179 -0.14801 983 ft 133 kts 206°
2026-05-06 20:57 5.64310 -0.15171 779 ft 136 kts 202°
2026-05-06 20:57 5.63456 -0.15527 618 ft 133 kts 201°
2026-05-06 20:57 5.62601 -0.15880 420 ft 131 kts 201°
2026-05-06 20:57 5.61763 -0.16219 286 ft 132 kts 201°
2026-05-06 20:58 5.60920 -0.16561 204 ft 124 kts 201°
2026-05-06 20:58 5.60304 -0.16810 204 ft 64 kts 202°
2026-05-06 20:58 5.60024 -0.16931 196 ft 38 kts 211°
2026-05-06 20:58 5.59854 -0.17095 194 ft 25 kts 232°
2026-05-06 20:59 5.59836 -0.17189 194 ft 12 kts 322°
2026-05-06 20:59 5.59914 -0.17182 194 ft 12 kts 22°
2026-05-06 20:59 5.59994 -0.17149 196 ft 14 kts 22°
2026-05-06 20:59 5.60063 -0.17138 201 ft 8 kts 329°
2026-05-06 21:00 5.60089 -0.17184 212 ft 8 kts 292°
2026-05-06 21:00 5.60102 -0.17213 214 ft 1 kts 291°